"timestamp";"minute";"mean_h";"std_h";"mean_l";"std_l"
2019-10-31T23:00:56;1;-122.08981;2.8002176;-122.30189;2.8747141
2019-10-31T23:05:56;1;-122.595505;2.6482022;-122.680145;2.6859057
2019-10-31T23:10:56;1;-122.296036;2.6103446;-122.54182;2.6143513
2019-10-31T23:15:56;1;-122.505844;2.66176;-122.86041;2.5972428
2019-10-31T23:20:56;1;-122.560265;2.5769014;-122.63415;2.6951754
2019-10-31T23:25:56;1;-122.73308;2.7723973;-123.05828;2.6588101
2019-10-31T23:30:56;1;-123.62945;2.6181808;-123.69516;2.6533077
2019-10-31T23:45:56;1;-123.57629;2.8891463;-123.672905;2.914673
2019-10-31T23:50:56;1;-123.374596;2.8335824;-123.9226;2.6719632
2019-10-31T23:55:56;1;-123.45585;3.0102806;-123.80811;2.9623842
2019-11-01T00:00:56;1;-123.55554;3.0554664;-123.82659;3.0439818
2019-11-01T00:05:56;1;-123.411545;3.0872061;-124.49615;2.7451277
2019-11-01T00:10:56;1;-123.509796;3.051702;-123.65734;3.1121094
2019-11-01T00:15:56;1;-123.99435;2.7741776;-124.74039;2.6416433
2019-11-01T00:20:56;1;-123.111786;2.9778306;-122.61802;3.1840456
2019-11-01T00:25:56;1;-123.1644;3.0866187;-124.47006;2.6457193
2019-11-01T00:30:56;1;-123.59578;2.787208;-124.05028;2.6410239
2019-11-01T00:35:56;1;-122.79746;3.0904145;-123.718094;2.8214061
2019-11-01T00:40:56;1;-123.82719;2.7854068;-124.64343;2.5682437
2019-11-01T00:45:56;1;-124.00444;2.8048244;-124.76094;2.4835434
2019-11-01T00:50:56;1;-123.695175;2.8787892;-124.01451;2.8875751
2019-11-01T00:55:56;1;-123.9332;3.0874133;-124.23116;3.0979645
2019-11-01T01:00:56;1;-123.673546;2.818419;-123.96719;2.8104265
2019-11-01T01:05:56;1;-123.12314;2.991183;-124.24503;2.5795329
2019-11-01T01:10:56;1;-118.75866;3.1068776;-116.706985;3.2903647
2019-11-01T01:15:56;1;-123.164406;2.825646;-123.89903;2.6187458
2019-11-01T01:20:56;1;-122.29047;3.2026954;-123.81916;2.544403
2019-11-01T01:25:56;1;-123.13989;2.7330046;-123.65326;2.5959382
2019-11-01T01:30:56;1;-123.22662;2.9208796;-124.07296;2.6865768
2019-11-01T01:35:56;1;-123.488655;3.047423;-124.077255;2.886411
2019-11-01T01:40:56;1;-123.767525;2.7903244;-124.30679;2.6652794
2019-11-01T01:45:56;1;-123.43268;2.8923292;-123.95184;2.8368433
2019-11-01T01:50:56;1;-123.85476;2.8058095;-124.59379;2.543395
2019-11-01T01:55:56;1;-123.701195;2.828811;-124.1329;2.7595894
2019-11-01T02:00:56;1;-123.56761;2.858405;-123.83109;2.8691108
2019-11-01T02:05:56;1;-123.625694;2.8777275;-123.86606;2.8075316
2019-11-01T02:10:56;1;-123.49841;2.8257918;-124.24686;2.4462383
2019-11-01T02:15:56;1;-123.84651;2.8142118;-124.4709;2.7332888
2019-11-01T02:20:56;1;-123.55161;2.8787181;-123.75565;2.8258336
2019-11-01T02:25:56;1;-123.83795;2.7814796;-124.3116;2.707658
2019-11-01T02:30:56;1;-121.60198;3.0978694;-124.03973;2.884272
2019-11-01T02:35:56;1;-122.88195;3.3368979;-124.416306;2.6490672
2019-11-01T02:40:56;1;-123.355446;2.7609453;-123.82469;2.6562207
2019-11-01T02:45:56;1;-122.815575;2.8913133;-123.492744;2.666422
2019-11-01T02:50:56;1;-122.32733;2.9840908;-122.50866;2.8032174
2019-11-01T02:55:56;1;-122.828865;2.6906443;-123.02795;2.6370034
2019-11-01T03:00:56;1;-122.18753;2.7297053;-122.62333;2.6472316
2019-11-01T03:05:56;1;-122.63902;2.6497066;-122.84048;2.5642312
2019-11-01T03:10:56;1;-122.17577;2.7494133;-122.36559;2.716268
2019-11-01T03:15:56;1;-122.70856;2.6025298;-122.735725;2.756736
2019-11-01T03:20:56;1;-122.7758;2.6687086;-122.464386;2.7626152
2019-11-01T03:25:56;1;-122.74587;2.6707041;-122.95031;2.66083
2019-11-01T03:30:56;1;-122.311386;2.5998738;-122.31266;2.6932714
2019-11-01T03:35:56;1;-122.517075;2.5815563;-122.66939;2.5225852
2019-11-01T03:40:56;1;-119.99482;2.7911162;-122.68527;2.5764391
2019-11-01T03:45:56;1;-122.56613;2.8103995;-122.57841;2.9036844
2019-11-01T03:50:56;1;-122.94507;2.6397471;-123.12746;2.6109498
2019-11-01T03:55:56;1;-123.02387;2.6771717;-123.20061;2.5976741
2019-11-01T04:00:56;1;-122.74065;2.6221578;-122.69126;2.5510087
2019-11-01T04:05:56;1;-121.414215;2.899621;-120.759995;2.9877293
2019-11-01T04:10:56;1;-121.994514;2.7704463;-121.477066;2.8080633
2019-11-01T04:15:56;1;-114.25631;6.606222;-122.371895;2.625026
2019-11-01T04:20:56;1;-122.63474;2.5647178;-123.087715;2.4966705
2019-11-01T04:25:56;1;-123.13078;2.5865202;-123.198494;2.6031716
2019-11-01T04:30:56;1;-122.926476;2.5899527;-122.9374;2.6222746
2019-11-01T04:35:56;1;-122.52863;2.7934003;-121.99466;2.947385
2019-11-01T04:40:56;1;-122.861336;2.8397992;-123.474655;2.617043
2019-11-01T04:45:56;1;-106.160194;10.721906;-103.16319;8.810135
2019-11-01T04:50:56;1;-123.2934;2.614805;-123.47841;2.5190818
2019-11-01T04:55:56;1;-121.66491;3.2891471;-123.250755;2.5555563
2019-11-01T05:00:56;1;-122.177895;2.973745;-123.13084;2.5345008
2019-11-01T05:05:56;1;-123.13897;2.6130993;-123.250755;2.565502
2019-11-01T05:10:56;1;-123.14436;2.6657104;-123.23116;2.5960019
2019-11-01T05:15:56;1;-123.37903;2.6058948;-123.34138;2.6466088
2019-11-01T05:20:56;1;-123.222565;2.5716343;-123.167656;2.625717
2019-11-01T05:25:56;1;-122.78692;2.6098657;-122.7975;2.6513453
2019-11-01T05:30:56;1;-123.08388;2.5326078;-123.41374;2.551915
2019-11-01T05:35:56;1;-122.853485;2.654231;-122.79827;2.6968126
2019-11-01T05:40:56;1;-122.72882;2.5328379;-122.868515;2.508356
2019-11-01T05:45:56;1;-122.67495;2.624521;-123.23131;2.526256
2019-11-01T05:50:56;1;-122.66873;2.872648;-123.57739;2.480945
2019-11-01T05:55:56;1;-122.24145;3.0263834;-123.66016;2.4666219
2019-11-01T06:00:56;1;-119.998856;3.9758186;-123.38216;2.7654607
2019-11-01T06:05:56;1;-119.43861;4.2852116;-123.26062;2.681984
2019-11-01T06:10:56;1;-116.25647;5.9518423;-124.01553;2.4868402
2019-11-01T06:15:56;1;-116.73343;5.8650374;-124.03103;2.7974815
2019-11-01T06:20:56;1;-116.54572;5.8544517;-123.77295;2.770444
2019-11-01T06:25:56;1;-114.815056;6.841245;-124.56272;2.5434651
2019-11-01T06:30:56;1;-112.564804;7.7439413;-124.33373;2.5819511
2019-11-01T06:35:56;1;-112.50918;7.7791667;-124.55273;2.5551105
2019-11-01T06:40:56;1;-107.857346;9.852666;-124.29379;2.589706
2019-11-01T06:45:56;1;-102.095245;12.680522;-124.01552;2.6032383
2019-11-01T06:50:56;1;-88.75794;19.501472;-123.768005;2.7460344
2019-11-01T06:55:56;1;-96.56045;15.577329;-123.88868;2.6680417
2019-11-01T07:00:56;1;-93.96095;16.552778;-123.90094;2.6165788
2019-11-01T07:05:56;1;-89.41021;18.678938;-124.1079;2.656502
2019-11-01T07:10:56;1;-95.01928;15.971096;-123.70246;2.7254055
2019-11-01T07:15:56;1;-94.72429;16.093424;-123.535385;2.4815102
2019-11-01T07:20:56;1;-92.820564;16.788393;-123.962265;2.5191975
2019-11-01T07:25:56;1;-85.524055;21.018623;-124.106445;2.4770038
2019-11-01T07:30:56;1;-86.6069;20.121487;-124.00285;2.4692206
2019-11-01T07:35:56;1;-87.87985;19.19634;-123.63953;2.476609
2019-11-01T07:40:56;1;-86.452835;19.718613;-123.54656;2.7708113
2019-11-01T07:45:56;1;-87.11891;19.190296;-123.70311;2.5729876
2019-11-01T07:50:56;1;-92.26833;17.33601;-123.43279;2.7399049
2019-11-01T07:55:56;1;-85.53584;20.991764;-124.04413;2.3746793
2019-11-01T08:00:56;1;-87.46038;19.038763;-122.1937;2.4389029
2019-11-01T08:05:56;1;-88.00069;18.768377;-122.569595;2.33665
2019-11-01T08:10:56;1;-90.40043;18.391098;-123.89303;2.4710877
2019-11-01T08:15:56;1;-85.72751;20.609287;-123.739746;2.3571873
2019-11-01T08:20:56;1;-88.33811;19.328869;-123.20163;2.6417542
2019-11-01T08:25:56;1;-88.396355;19.3723;-123.878944;2.439123
2019-11-01T08:30:56;1;-87.775734;20.171564;-124.84801;2.3480506
2019-11-01T08:35:56;1;-90.78751;18.603737;-124.74492;2.3316672
2019-11-01T08:40:56;1;-94.65163;16.18151;-124.2628;2.4800322
2019-11-01T08:45:56;1;-89.800156;19.225971;-124.60245;2.531095
2019-11-01T08:50:56;1;-90.33284;18.545908;-124.26614;2.6325145
2019-11-01T08:55:56;1;-92.243195;17.595592;-124.03106;2.5284688
2019-11-01T09:00:56;1;-89.31719;18.358833;-123.718544;2.540753
2019-11-01T09:05:56;1;-91.06083;16.862532;-123.83544;2.4293694
2019-11-01T09:10:56;1;-91.86059;16.971596;-123.97976;2.6067734
2019-11-01T09:15:56;1;-89.305435;18.088917;-123.920074;2.489468
2019-11-01T09:20:56;1;-90.74574;17.991465;-123.8979;2.4451027
2019-11-01T09:25:56;1;-91.454254;17.253937;-124.006805;2.454256
2019-11-01T09:30:56;1;-98.149765;13.922655;-123.77903;2.4554052
2019-11-01T09:35:56;1;-100.78383;13.140585;-124.059;2.5237877
2019-11-01T09:40:56;1;-102.84216;11.903397;-123.654465;2.5721042
2019-11-01T09:45:56;1;-96.758026;15.127971;-124.00355;2.5285678
2019-11-01T09:50:56;1;-91.95131;17.219313;-124.22919;2.6199517
2019-11-01T09:55:56;1;-93.65272;16.633286;-124.5763;2.5057857
2019-11-01T10:00:56;1;-94.22279;15.901359;-123.86941;2.5444121
2019-11-01T10:05:56;1;-93.75332;16.459925;-124.034546;2.5127397
2019-11-01T10:10:56;1;-93.03894;16.928932;-124.23958;2.456579
2019-11-01T10:15:56;1;-93.16793;17.047232;-124.204704;2.493465
2019-11-01T10:20:56;1;-93.09511;16.850227;-124.40746;2.4810612
2019-11-01T10:25:56;1;-89.90448;18.86118;-124.52007;2.4092066
2019-11-01T10:30:56;1;-95.60752;15.781481;-124.07517;2.591213
2019-11-01T10:35:56;1;-94.101555;16.348635;-124.157684;2.5259917
2019-11-01T10:40:56;1;-90.577034;18.134296;-124.2642;2.50776
2019-11-01T10:45:56;1;-92.80488;17.170326;-123.896904;2.5663373
2019-11-01T10:50:56;1;-91.94116;17.312593;-124.133026;2.572342
2019-11-01T10:55:56;1;-88.02984;19.708164;-124.30424;2.4331892
2019-11-01T11:00:56;1;-89.5238;18.618296;-123.7076;2.486663
2019-11-01T11:05:56;1;-92.11298;16.948555;-123.620636;2.4880314
2019-11-01T11:10:56;1;-92.49756;16.887781;-123.79422;2.4343185
2019-11-01T11:15:56;1;-90.37551;18.133839;-123.679634;2.4488068
2019-11-01T11:20:56;1;-86.68259;19.833574;-123.54423;2.4309435
2019-11-01T11:25:56;1;-95.42749;15.381271;-123.44778;2.5030532
2019-11-01T11:30:56;1;-89.88089;17.88537;-123.14289;2.5623684
2019-11-01T11:35:56;1;-89.59839;18.41157;-123.35595;2.6003177
2019-11-01T11:40:56;1;-91.89788;17.490658;-123.35513;2.4889874
2019-11-01T11:45:56;1;-91.79545;17.20706;-123.1673;2.5309653
2019-11-01T11:50:56;1;-86.07651;20.323484;-123.547646;2.4673085
2019-11-01T11:55:56;1;-95.72618;15.10112;-123.42067;2.4981596
2019-11-01T12:00:56;1;-92.594925;17.113663;-123.06115;2.4848351
2019-11-01T12:05:56;1;-95.590836;15.108911;-122.869514;2.4426463
2019-11-01T12:10:56;1;-94.883095;15.450126;-122.88759;2.3556702
2019-11-01T12:15:56;1;-95.58712;15.580087;-122.89826;2.6304047
2019-11-01T12:20:56;1;-84.57337;20.995321;-122.6389;2.520444
2019-11-01T12:25:56;1;-92.58762;16.878353;-122.795525;2.5642393
2019-11-01T12:30:56;1;-95.00359;15.702878;-123.341385;2.4474783
2019-11-01T12:35:56;1;-96.61617;14.511706;-123.061325;2.287952
2019-11-01T12:40:56;1;-84.880226;20.172693;-123.22979;2.5521312
2019-11-01T12:45:56;1;-89.14956;18.675053;-123.092834;2.5417352
2019-11-01T12:50:56;1;-90.84379;17.86649;-122.961914;2.469065
2019-11-01T12:55:56;1;-87.26818;19.832209;-123.272484;2.5478694
2019-11-01T13:00:56;1;-91.93744;17.327127;-122.8029;2.5312054
2019-11-01T13:05:56;1;-90.244156;17.976742;-123.147095;2.516222
2019-11-01T13:10:56;1;-90.72218;17.648441;-123.088066;2.382245
2019-11-01T13:15:56;1;-89.183174;18.443459;-122.75229;2.4429972
2019-11-01T13:20:56;1;-91.03901;17.64787;-123.12898;2.4354346
2019-11-01T13:25:56;1;-88.38946;19.164312;-123.257454;2.4857132
2019-11-01T13:30:56;1;-88.07207;19.47382;-123.44045;2.5103276
2019-11-01T13:35:56;1;-91.03527;17.829609;-123.50606;2.451974
2019-11-01T13:40:56;1;-89.68291;18.581278;-123.33803;2.483355
2019-11-01T13:45:56;1;-91.83677;17.177118;-123.41696;2.472452
2019-11-01T13:50:56;1;-93.4751;16.510046;-123.33826;2.555287
2019-11-01T13:55:56;1;-95.90892;15.59801;-124.01873;2.4428008
2019-11-01T14:00:56;1;-94.54926;15.922876;-123.52431;2.4106803
2019-11-01T14:05:56;1;-93.29582;16.711056;-123.75901;2.452776
2019-11-01T14:10:56;1;-88.514244;18.950846;-123.62886;2.4665806
2019-11-01T14:15:56;1;-88.70514;18.974749;-123.42549;2.455577
2019-11-01T14:20:56;1;-91.124756;17.465921;-123.20778;2.4494011
2019-11-01T14:25:56;1;-88.50806;19.013294;-123.50004;2.473572
2019-11-01T14:30:56;1;-87.04759;19.42535;-122.91739;2.6231925
2019-11-01T14:35:56;1;-87.23264;19.23185;-122.73361;2.4990683
2019-11-01T14:40:56;1;-92.74678;16.700684;-122.79045;2.5520732
2019-11-01T14:45:56;1;-87.27363;19.373457;-122.7299;2.5615103
2019-11-01T14:50:56;1;-93.45205;15.885324;-122.846756;2.4936976
2019-11-01T14:55:56;1;-87.213066;19.48558;-122.808334;2.5139894
2019-11-01T15:00:56;1;-91.70973;17.12425;-122.88621;2.4711456
2019-11-01T15:05:56;1;-90.86862;16.50177;-122.68148;2.4636314
2019-11-01T15:10:56;1;-92.280426;16.800014;-122.32316;2.6057744
2019-11-01T15:15:56;1;-90.372;17.093536;-122.46984;2.534334
2019-11-01T15:20:56;1;-88.88997;18.39724;-122.39634;2.6001482
2019-11-01T15:25:56;1;-87.458725;18.877926;-122.51824;2.4873297
2019-11-01T15:30:56;1;-88.24064;18.934093;-122.51884;2.5335317
2019-11-01T15:35:56;1;-87.59342;19.169296;-122.693184;2.5756428
2019-11-01T15:40:56;1;-84.772545;20.69672;-122.75496;2.48432
2019-11-01T15:45:56;1;-88.27952;18.594166;-122.54962;2.6343427
2019-11-01T15:50:56;1;-89.91312;18.014938;-122.88339;2.4733217
2019-11-01T15:55:56;1;-94.25167;15.997108;-122.63775;2.5294652
2019-11-01T16:00:56;1;-92.49008;16.781311;-122.56544;2.5644546
2019-11-01T16:05:56;1;-93.614334;16.364595;-122.69472;2.624952
2019-11-01T16:10:56;1;-98.80083;13.078872;-123.04008;2.4229896
2019-11-01T16:15:56;1;-118.05476;4.7421737;-123.168304;2.5386825
2019-11-01T16:20:56;1;-121.04544;3.2726705;-122.44864;2.6751342
2019-11-01T16:25:56;1;-122.1614;2.8115697;-123.106544;2.4777677
2019-11-01T16:30:56;1;-121.2566;2.7498546;-123.21059;2.4962375
2019-11-01T16:35:56;1;-122.89236;2.5338252;-123.31272;2.442314
2019-11-01T16:40:56;1;-122.97682;2.5452123;-123.3664;2.5177398
2019-11-01T16:45:56;1;-123.33498;2.5471778;-123.41966;2.4976583
2019-11-01T16:50:56;1;-122.48565;2.6377983;-121.88157;2.654737
2019-11-01T16:55:56;1;-122.80795;2.5190792;-122.85589;2.6122751
2019-11-01T17:00:56;1;-121.71283;2.5100944;-121.8541;2.6487174
2019-11-01T17:05:56;1;-122.23575;2.464894;-122.16743;2.4666975
2019-11-01T17:10:56;1;-114.71742;2.9926054;-123.51595;2.3994899
2019-11-01T17:15:56;1;-123.38539;2.5332735;-123.60102;2.4754744
2019-11-01T17:20:56;1;-123.24074;2.4502854;-123.27828;2.4584017
2019-11-01T17:25:56;1;-121.362755;2.4989824;-121.077896;2.4572585
2019-11-01T17:30:56;1;-121.156555;2.5105648;-121.219505;2.4767532
2019-11-01T17:35:56;1;-120.620895;2.766021;-120.76683;2.7742674
2019-11-01T17:40:56;1;-121.47829;2.5243304;-121.495094;2.525605
2019-11-01T17:45:56;1;-121.54646;2.479686;-121.68876;2.547798
2019-11-01T17:50:56;1;-121.42064;2.4595904;-121.466866;2.4306972
2019-11-01T17:55:56;1;-121.36423;2.4876194;-121.46178;2.4938543
2019-11-01T18:00:56;1;-120.93227;2.4609895;-121.07398;2.434791
2019-11-01T18:05:56;1;-120.99869;2.56537;-121.2669;2.5723476
2019-11-01T18:10:56;1;-121.03379;2.5480678;-121.39059;2.4508247
2019-11-01T18:15:56;1;-120.95617;2.6704452;-120.90736;2.7367706
2019-11-01T18:20:56;1;-121.70857;2.4664528;-121.788635;2.4556556
2019-11-01T18:25:56;1;-121.27854;2.5935428;-121.62906;2.487811
2019-11-01T18:30:56;1;-121.290405;2.5527682;-121.52954;2.4765105
2019-11-01T18:35:56;1;-121.31905;2.4672768;-121.40448;2.4101408
2019-11-01T18:40:56;1;-120.75462;2.571284;-120.42944;2.661196
2019-11-01T18:45:56;1;-111.20625;7.005317;-121.47508;2.4831305
2019-11-01T18:50:56;1;-112.051094;6.6652713;-121.86112;2.3703153
2019-11-01T18:55:56;1;-119.65419;3.3926167;-121.939575;2.5133698
2019-11-01T19:00:56;1;-120.109055;2.643065;-119.28332;2.7134979
2019-11-01T19:05:56;1;-121.13574;2.5471299;-121.41622;2.4695473
2019-11-01T19:10:56;1;-121.327034;2.5162783;-121.43144;2.5034199
2019-11-01T19:15:56;1;-121.64899;2.455774;-121.69908;2.3906183
2019-11-01T19:20:56;1;-120.92435;2.5725374;-121.26997;2.4741333
2019-11-01T19:25:56;1;-120.966225;2.4861643;-121.2862;2.3291862
2019-11-01T19:30:56;1;-121.5668;2.458607;-121.761314;2.4532318
2019-11-01T19:35:56;1;-121.69379;2.6060596;-122.23159;2.3779838
2019-11-01T19:40:56;1;-122.12621;2.7304716;-123.02847;2.6315024
2019-11-01T19:45:56;1;-122.660164;2.6488848;-123.08721;2.579633
2019-11-01T19:50:56;1;-122.317215;2.5252488;-122.46609;2.6287482
2019-11-01T19:55:56;1;-123.028366;2.5172892;-123.17612;2.49567
2019-11-01T20:00:56;1;-123.02771;2.553053;-123.072716;2.5851035
2019-11-01T20:05:56;1;-121.75558;2.543891;-121.394;2.4400592
2019-11-01T20:10:56;1;-121.21156;2.5150602;-121.22216;2.4573739
2019-11-01T20:15:56;1;-120.93454;2.7166927;-121.48491;2.5615916
2019-11-01T20:20:56;1;-121.7928;2.6973953;-122.337166;2.4160266
2019-11-01T20:25:56;1;-112.800385;2.9954953;-110.01775;3.4205654
2019-11-01T20:30:56;1;-122.65746;2.5512176;-122.734795;2.518607
2019-11-01T20:35:56;1;-122.16889;2.638775;-122.08005;2.6265562
2019-11-01T20:40:56;1;-121.11677;2.4312575;-121.13936;2.4142027
2019-11-01T20:45:56;1;-121.31265;2.4783635;-121.35264;2.4861484
2019-11-01T20:50:56;1;-121.63286;2.5192666;-121.798195;2.511785
2019-11-01T20:55:56;1;-121.67192;2.4542844;-121.82812;2.4645894
2019-11-01T21:00:56;1;-121.43036;2.4145947;-121.52498;2.3867586
2019-11-01T21:05:56;1;-120.86544;2.4482036;-120.89624;2.4771464
2019-11-01T21:10:56;1;-120.16886;3.0650768;-121.38051;2.5638964
2019-11-01T21:15:56;1;-121.823296;2.4980364;-121.890205;2.4469802
2019-11-01T21:20:56;1;-113.67966;3.0002139;-122.7512;2.344125
2019-11-01T21:25:56;1;-122.18809;2.5053678;-122.15891;2.4543784
2019-11-01T21:30:56;1;-122.80916;2.5751023;-122.773796;2.6164815
2019-11-01T21:35:56;1;-122.70977;2.5526803;-122.75432;2.6221085
2019-11-01T21:40:56;1;-122.441086;2.5262074;-122.35453;2.557386
2019-11-01T21:45:56;1;-122.25026;2.637382;-122.53018;2.6177874
2019-11-01T21:50:56;1;-122.324844;2.5616057;-122.060646;2.573732
2019-11-01T21:55:56;1;-122.31546;2.5545108;-122.52081;2.4799697
2019-11-01T22:00:56;1;-122.52623;2.5537345;-122.58674;2.6050143
2019-11-01T22:05:56;1;-122.7707;2.5489557;-123.12984;2.4275258
2019-11-01T22:10:56;1;-122.73451;2.5366821;-122.37145;2.5754814
2019-11-01T22:15:56;1;-123.53507;2.6812418;-123.760506;2.6175082
2019-11-01T22:20:56;1;-123.093056;2.640838;-122.44836;2.7791812
2019-11-01T22:25:56;1;-123.77838;2.5289395;-123.89416;2.543278
2019-11-01T22:30:56;1;-122.808624;2.7740388;-123.36226;2.7489412
2019-11-01T22:35:56;1;-123.70446;2.5477614;-123.76742;2.5086555
2019-11-01T22:40:56;1;-123.8182;2.4356227;-123.91039;2.4068303
2019-11-01T22:45:56;1;-123.609886;2.5412266;-123.50257;2.6166656
2019-11-01T22:50:56;1;-120.14395;2.9191055;-123.42461;2.5303495
2019-11-01T22:55:56;1;-123.384346;2.4060667;-123.63994;2.3866792
2019-11-01T23:00:56;1;-123.40356;2.6865413;-123.41808;2.7998033
2019-11-01T23:05:56;1;-120.3071;3.7181191;-123.39622;2.4098191
2019-11-01T23:10:56;1;-123.86015;2.5489705;-124.150665;2.5548925
2019-11-01T23:15:56;1;-124.05847;2.5297024;-124.113464;2.475263
2019-11-01T23:20:56;1;-123.97262;2.5866337;-124.301094;2.5425153
2019-11-01T23:25:56;1;-123.9932;2.5739472;-124.04695;2.6445298
2019-11-01T23:30:56;1;-123.81173;2.5044637;-123.99054;2.5192049
2019-11-01T23:35:56;1;-124.11915;2.580392;-124.331505;2.5760763
2019-11-01T23:40:56;1;-123.64807;2.7010946;-124.00425;2.5987234
2019-11-01T23:45:56;1;-123.41076;2.570741;-123.51559;2.546653
2019-11-01T23:50:56;1;-123.076355;2.8594148;-123.638954;2.6713088
2019-11-01T23:55:56;1;-123.63895;2.6180365;-123.87418;2.5240083
2019-11-02T00:00:56;1;-123.66461;2.6602376;-124.09671;2.591014
2019-11-02T00:05:56;1;-124.198845;2.496739;-124.38862;2.5231967
2019-11-02T00:10:56;1;-124.428345;2.4883568;-124.67971;2.4720047
2019-11-02T00:15:56;1;-124.35943;2.623449;-124.68573;2.5955045
2019-11-02T00:20:56;1;-122.2438;3.459094;-124.50521;2.579479
2019-11-02T00:25:56;1;-123.91049;2.552204;-124.157486;2.508208
2019-11-02T00:30:56;1;-124.18409;2.53458;-124.36082;2.4440243
2019-11-02T00:35:56;1;-124.059906;2.569195;-124.15269;2.5481603
2019-11-02T00:40:56;1;-123.93423;2.561243;-124.079185;2.5413902
2019-11-02T00:45:56;1;-123.65117;2.5667922;-123.79451;2.5387611
2019-11-02T00:50:56;1;-123.80447;2.5614684;-124.003716;2.5167716
2019-11-02T00:55:56;1;-124.24298;2.5891452;-124.42382;2.5316687
2019-11-02T01:00:56;1;-124.3476;2.5822458;-124.57405;2.4095592
2019-11-02T01:05:56;1;-123.200195;2.7924597;-124.09685;2.6771119
2019-11-02T01:10:56;1;-123.634125;2.645803;-123.93491;2.7113037
2019-11-02T01:15:56;1;-123.70985;2.528561;-124.01614;2.4911528
2019-11-02T01:20:56;1;-123.37148;2.578934;-123.70907;2.5275168
2019-11-02T01:25:56;1;-123.68446;2.592238;-123.921875;2.5665042
2019-11-02T01:30:56;1;-123.62416;2.5663493;-123.72896;2.542802
2019-11-02T01:35:56;1;-122.69171;2.8048787;-123.27026;2.6507566
2019-11-02T01:40:56;1;-123.17447;2.6331604;-123.70357;2.5122504
2019-11-02T01:45:56;1;-123.57284;2.5125406;-123.77992;2.4486341
2019-11-02T01:50:56;1;-122.92013;2.706443;-123.37394;2.4924126
2019-11-02T01:55:56;1;-123.38083;2.5233073;-123.68475;2.4505935
2019-11-02T02:00:56;1;-123.50694;2.5048423;-123.622574;2.5033855
2019-11-02T02:05:56;1;-123.70131;2.5890758;-124.12366;2.4952035
2019-11-02T02:10:56;1;-123.67643;2.6185434;-123.812485;2.701402
2019-11-02T02:15:56;1;-123.43759;2.6271195;-123.73285;2.52541
2019-11-02T02:20:56;1;-123.38984;2.5942602;-123.56477;2.5570285
2019-11-02T02:25:56;1;-123.145035;2.7630296;-123.85645;2.5967681
2019-11-02T02:30:56;1;-123.378265;2.6343808;-123.3732;2.7137113
2019-11-02T02:35:56;1;-123.29317;2.5442567;-123.28687;2.6190896
2019-11-02T02:40:56;1;-122.66874;2.565989;-122.87134;2.494265
2019-11-02T02:45:56;1;-122.98832;2.4314177;-123.124565;2.375796
2019-11-02T02:50:56;1;-122.760735;2.5100646;-122.83521;2.5761006
2019-11-02T02:55:56;1;-123.183876;2.5143929;-123.18395;2.551277
2019-11-02T03:00:56;1;-122.95642;2.584161;-123.388756;2.4862807
2019-11-02T03:05:56;1;-123.2928;2.510465;-123.57503;2.372667
2019-11-02T03:10:56;1;-122.89458;2.6937218;-123.09991;2.5027747
2019-11-02T03:15:56;1;-123.000595;2.4920156;-123.01248;2.504795
2019-11-02T03:20:56;1;-123.17398;2.5441353;-123.31828;2.5583882
2019-11-02T03:25:56;1;-122.991234;2.5142176;-122.97836;2.5865211
2019-11-02T03:30:56;1;-122.83711;2.4804738;-122.877754;2.4580848
2019-11-02T03:35:56;1;-122.95091;2.5949879;-123.29475;2.467727
2019-11-02T03:40:56;1;-123.165054;2.5441315;-123.501526;2.4939258
2019-11-02T03:45:56;1;-123.18323;2.5067437;-123.13002;2.499412
2019-11-02T03:50:56;1;-122.88742;2.5565577;-122.92449;2.5542521
2019-11-02T03:55:56;1;-123.08735;2.4998064;-123.278656;2.4396877
2019-11-02T04:00:56;1;-123.179016;2.4955745;-123.18833;2.4974422
2019-11-02T04:05:56;1;-122.98413;2.585615;-122.97275;2.6128933
2019-11-02T04:10:56;1;-123.15407;2.501511;-123.13182;2.5346656
2019-11-02T04:15:56;1;-123.18921;2.5655854;-123.22706;2.627177
2019-11-02T04:20:56;1;-122.88355;2.6033242;-123.12661;2.562668
2019-11-02T04:25:56;1;-122.65074;2.4874897;-122.70322;2.4884875
2019-11-02T04:30:56;1;-122.7717;2.4350324;-122.71798;2.4862895
2019-11-02T04:35:56;1;-122.21216;2.7223608;-122.792694;2.653479
2019-11-02T04:40:56;1;-121.80788;2.5476928;-121.83803;2.6527295
2019-11-02T04:45:56;1;-121.32591;2.5040154;-121.25238;2.455928
2019-11-02T04:50:56;1;-121.575554;2.613831;-121.72862;2.5807643
2019-11-02T04:55:56;1;-122.47092;2.5626628;-122.651;2.511941
2019-11-02T05:00:56;1;-122.96774;2.4562695;-123.04894;2.3830643
2019-11-02T05:05:56;1;-123.14784;2.528952;-123.206856;2.4617271
2019-11-02T05:10:56;1;-122.970604;2.470736;-122.81865;2.5705373
2019-11-02T05:15:56;1;-122.66625;2.394249;-122.74613;2.3758802
2019-11-02T05:20:56;1;-122.35515;2.5897017;-122.47949;2.5372083
2019-11-02T05:25:56;1;-122.497604;2.48934;-122.589554;2.4461465
2019-11-02T05:30:56;1;-122.971085;2.5147977;-122.983246;2.5326414
2019-11-02T05:35:56;1;-122.95224;2.614988;-123.18542;2.6231058
2019-11-02T05:40:56;1;-122.99971;2.5852876;-123.28761;2.6157765
2019-11-02T05:45:56;1;-122.79459;2.630636;-123.15797;2.509705
2019-11-02T05:50:56;1;-122.96633;2.4909146;-123.20996;2.5912075
2019-11-02T05:55:56;1;-123.16855;2.785939;-123.68052;2.64691
2019-11-02T06:00:56;1;-120.491455;3.7351058;-120.65981;3.7443883
2019-11-02T06:05:56;1;-120.72683;3.72662;-123.51816;2.5803707
2019-11-02T06:10:56;1;-118.06783;5.091938;-124.16685;2.431705
2019-11-02T06:15:56;1;-115.034546;6.5619574;-124.20275;2.4420216
2019-11-02T06:20:56;1;-111.73808;8.007531;-124.20273;2.5260909
2019-11-02T06:25:56;1;-110.809555;8.488306;-124.18827;2.4756713